THY1TS LTBJ-LTFC

Flight info

Callsign THY1TS
Flight time 0h 35m
Altitude 25000
Route BAPSI N135 BALSU N136 CRD W110 PELIL
Aircraft B738/M-SDE2E3FGHIRWXY/LB1

Departure

Time 2026-04-25 15:07
Airport Adnan Menderes International Airport (LTBJ)

Arrival

Time 2026-04-25 15:42
Airport Süleyman Demirel International Airport (LTFC)
Time Latitude Longitude Altitude Speed Heading
2026-04-25 14:45 38.29584 27.14974 392 ft 0 kts 257°
2026-04-25 14:57 38.29587 27.14989 394 ft 2 kts 257°
2026-04-25 14:58 38.29590 27.15010 394 ft 2 kts 258°
2026-04-25 14:58 38.29593 27.15030 392 ft 2 kts 262°
2026-04-25 14:58 38.29593 27.15052 393 ft 2 kts 319°
2026-04-25 14:58 38.29588 27.15056 394 ft 0 kts 347°
2026-04-25 15:02 38.29608 27.15050 389 ft 8 kts 347°
2026-04-25 15:02 38.29665 27.15033 391 ft 9 kts 347°
2026-04-25 15:02 38.29722 27.15017 393 ft 8 kts 347°
2026-04-25 15:03 38.29778 27.15000 393 ft 8 kts 346°
2026-04-25 15:03 38.29830 27.14984 393 ft 8 kts 346°
2026-04-25 15:03 38.29882 27.14968 392 ft 8 kts 346°
2026-04-25 15:03 38.29932 27.14967 394 ft 7 kts 30°
2026-04-25 15:04 38.29949 27.15015 394 ft 5 kts 76°
2026-04-25 15:04 38.29958 27.15061 393 ft 5 kts 76°
2026-04-25 15:04 38.29966 27.15106 395 ft 5 kts 77°
2026-04-25 15:04 38.29974 27.15150 396 ft 5 kts 77°
2026-04-25 15:05 38.29982 27.15194 396 ft 5 kts 77°
2026-04-25 15:05 38.29988 27.15248 399 ft 9 kts 88°
2026-04-25 15:05 38.29999 27.15347 395 ft 13 kts 77°
2026-04-25 15:06 38.29983 27.15472 400 ft 5 kts 166°
2026-04-25 15:06 38.29871 27.15505 400 ft 46 kts 167°
2026-04-25 15:06 38.29302 27.15676 395 ft 120 kts 167°
2026-04-25 15:06 38.28287 27.15973 451 ft 174 kts 168°
2026-04-25 15:07 38.27091 27.16314 1277 ft 167 kts 169°
2026-04-25 15:07 38.25937 27.16660 2145 ft 171 kts 167°
2026-04-25 15:07 38.24712 27.17034 2558 ft 198 kts 167°
2026-04-25 15:07 38.23283 27.17465 2819 ft 223 kts 167°
2026-04-25 15:08 38.21694 27.17939 3153 ft 241 kts 166°
2026-04-25 15:08 38.19981 27.18449 3371 ft 266 kts 166°
2026-04-25 15:08 38.18085 27.19016 3560 ft 295 kts 166°
2026-04-25 15:08 38.16125 27.20057 3892 ft 318 kts 141°
2026-04-25 15:09 38.14791 27.22301 4739 ft 324 kts 112°
2026-04-25 15:09 38.14133 27.25042 5670 ft 326 kts 105°
2026-04-25 15:09 38.13068 27.30769 7163 ft 336 kts 104°
2026-04-25 15:10 38.12523 27.33638 7930 ft 340 kts 105°
2026-04-25 15:10 38.11943 27.36553 8684 ft 343 kts 106°
2026-04-25 15:10 38.10709 27.42464 10142 ft 350 kts 107°
2026-04-25 15:11 38.10067 27.45459 10844 ft 353 kts 107°
2026-04-25 15:11 38.09413 27.48485 11606 ft 356 kts 107°
2026-04-25 15:11 38.08751 27.51529 12363 ft 359 kts 106°
2026-04-25 15:12 38.07406 27.57692 13842 ft 365 kts 106°
2026-04-25 15:12 38.06722 27.60815 14525 ft 369 kts 106°
2026-04-25 15:12 38.06030 27.63971 15219 ft 372 kts 106°
2026-04-25 15:12 38.05803 27.65003 15447 ft 373 kts 106°
2026-04-25 15:13 38.04624 27.70368 16617 ft 379 kts 106°
2026-04-25 15:13 38.03190 27.76881 17969 ft 387 kts 106°
2026-04-25 15:13 38.02470 27.80143 18548 ft 391 kts 106°
2026-04-25 15:14 38.01734 27.83478 19125 ft 394 kts 106°
2026-04-25 15:14 38.00990 27.86834 19698 ft 397 kts 106°
2026-04-25 15:14 38.00235 27.90222 20272 ft 400 kts 107°
2026-04-25 15:14 37.99642 27.92453 20640 ft 402 kts 111°
2026-04-25 15:15 37.98570 27.95737 21208 ft 405 kts 114°
2026-04-25 15:15 37.97400 27.98997 21760 ft 408 kts 115°
2026-04-25 15:15 37.96202 28.02269 22314 ft 410 kts 115°
2026-04-25 15:15 37.95001 28.05569 22851 ft 413 kts 114°
2026-04-25 15:16 37.93808 28.08897 23370 ft 416 kts 114°
2026-04-25 15:16 37.92619 28.12254 23813 ft 419 kts 114°
2026-04-25 15:16 37.90236 28.19053 24623 ft 426 kts 114°
2026-04-25 15:17 37.87840 28.25914 24949 ft 424 kts 114°
2026-04-25 15:17 37.86645 28.29329 24968 ft 425 kts 114°
2026-04-25 15:17 37.85449 28.32746 24980 ft 425 kts 114°
2026-04-25 15:18 37.84262 28.36128 24980 ft 425 kts 114°
2026-04-25 15:18 37.81860 28.42964 24984 ft 425 kts 114°
2026-04-25 15:18 37.80643 28.46421 24976 ft 425 kts 114°
2026-04-25 15:19 37.79454 28.49795 24984 ft 425 kts 115°
2026-04-25 15:19 37.78653 28.52065 24985 ft 425 kts 115°
2026-04-25 15:19 37.77040 28.56631 24983 ft 425 kts 115°
2026-04-25 15:19 37.75833 28.60045 24980 ft 425 kts 115°
2026-04-25 15:20 37.74628 28.63452 24979 ft 424 kts 115°
2026-04-25 15:20 37.73425 28.66847 24983 ft 424 kts 115°
2026-04-25 15:20 37.72218 28.70246 24988 ft 423 kts 115°
2026-04-25 15:20 37.71002 28.73638 24991 ft 423 kts 115°
2026-04-25 15:21 37.69777 28.77015 24990 ft 423 kts 115°
2026-04-25 15:21 37.68549 28.80388 24989 ft 422 kts 116°
2026-04-25 15:21 37.67322 28.83754 24994 ft 422 kts 116°
2026-04-25 15:21 37.66111 28.87075 24989 ft 422 kts 116°
2026-04-25 15:22 37.64883 28.90444 24996 ft 422 kts 116°
2026-04-25 15:22 37.63655 28.93811 24998 ft 422 kts 116°
2026-04-25 15:22 37.62427 28.97177 24999 ft 422 kts 116°
2026-04-25 15:22 37.61201 29.00535 25002 ft 422 kts 116°
2026-04-25 15:23 37.59971 29.03899 25004 ft 422 kts 116°
2026-04-25 15:23 37.58739 29.07265 24997 ft 422 kts 116°
2026-04-25 15:23 37.57508 29.10623 25001 ft 422 kts 116°
2026-04-25 15:23 37.56277 29.13980 25003 ft 421 kts 116°
2026-04-25 15:24 37.55048 29.17328 25010 ft 421 kts 116°
2026-04-25 15:24 37.53815 29.20681 25007 ft 421 kts 116°
2026-04-25 15:24 37.52637 29.23991 24994 ft 408 kts 110°
2026-04-25 15:24 37.52233 29.26282 25000 ft 405 kts 96°
2026-04-25 15:25 37.52696 29.30972 24592 ft 403 kts 74°
2026-04-25 15:25 37.53832 29.34144 24121 ft 405 kts 59°
2026-04-25 15:25 37.55557 29.36946 23690 ft 404 kts 51°
2026-04-25 15:25 37.57422 29.39595 23095 ft 403 kts 50°
2026-04-25 15:26 37.59305 29.42205 22576 ft 400 kts 50°
2026-04-25 15:26 37.61163 29.44788 22085 ft 396 kts 50°
2026-04-25 15:26 37.62995 29.47366 21595 ft 393 kts 50°
2026-04-25 15:26 37.64804 29.49938 21120 ft 389 kts 50°
2026-04-25 15:27 37.66585 29.52489 20639 ft 386 kts 50°
2026-04-25 15:27 37.68359 29.55040 20171 ft 383 kts 50°
2026-04-25 15:27 37.71851 29.60075 19242 ft 378 kts 50°
2026-04-25 15:28 37.73561 29.62540 18792 ft 376 kts 50°
2026-04-25 15:28 37.75282 29.65024 18308 ft 375 kts 49°
2026-04-25 15:28 37.76989 29.67508 17784 ft 373 kts 52°
2026-04-25 15:28 37.78372 29.70256 17285 ft 370 kts 65°
2026-04-25 15:29 37.79268 29.73287 16754 ft 368 kts 76°
2026-04-25 15:29 37.79686 29.76463 16288 ft 365 kts 83°
2026-04-25 15:29 37.79978 29.79639 15833 ft 362 kts 84°
2026-04-25 15:29 37.80250 29.82786 15379 ft 360 kts 84°
2026-04-25 15:30 37.80525 29.85927 14901 ft 358 kts 84°
2026-04-25 15:30 37.80807 29.89059 14412 ft 358 kts 84°
2026-04-25 15:30 37.81093 29.92173 13968 ft 356 kts 84°
2026-04-25 15:30 37.81383 29.95277 13486 ft 354 kts 84°
2026-04-25 15:31 37.81673 29.98363 13005 ft 351 kts 84°
2026-04-25 15:31 37.81960 30.01412 12553 ft 345 kts 84°
2026-04-25 15:31 37.82239 30.04377 12141 ft 333 kts 84°
2026-04-25 15:31 37.82505 30.07206 11736 ft 323 kts 84°
2026-04-25 15:32 37.82765 30.09989 11333 ft 313 kts 84°
2026-04-25 15:32 37.83017 30.12693 10947 ft 304 kts 84°
2026-04-25 15:32 37.83205 30.15285 10815 ft 288 kts 87°
2026-04-25 15:33 37.83358 30.20190 10280 ft 269 kts 101°
2026-04-25 15:33 37.82654 30.22321 10158 ft 264 kts 128°
2026-04-25 15:33 37.81265 30.23872 10061 ft 271 kts 152°
2026-04-25 15:33 37.79458 30.24553 9811 ft 276 kts 178°
2026-04-25 15:34 37.77582 30.24111 9570 ft 278 kts 205°
2026-04-25 15:34 37.76032 30.22670 9328 ft 277 kts 226°
2026-04-25 15:34 37.74770 30.20845 9097 ft 273 kts 229°
2026-04-25 15:34 37.73960 30.19638 8927 ft 268 kts 229°
2026-04-25 15:35 37.71251 30.15633 8403 ft 244 kts 229°
2026-04-25 15:35 37.70188 30.14043 8200 ft 235 kts 229°
2026-04-25 15:35 37.69152 30.12494 8017 ft 228 kts 229°
2026-04-25 15:36 37.67202 30.09374 7627 ft 226 kts 251°
2026-04-25 15:36 37.67216 30.07469 7631 ft 220 kts 294°
2026-04-25 15:36 37.68293 30.06089 7669 ft 232 kts 338°
2026-04-25 15:37 37.69906 30.05957 7685 ft 240 kts 19°
2026-04-25 15:37 37.71225 30.07186 7692 ft 240 kts 59°
2026-04-25 15:37 37.71729 30.09137 7690 ft 238 kts 80°
2026-04-25 15:37 37.72128 30.11220 7464 ft 246 kts 73°
2026-04-25 15:38 37.72738 30.13235 7270 ft 244 kts 66°
2026-04-25 15:38 37.73300 30.15234 7094 ft 238 kts 75°
2026-04-25 15:38 37.73744 30.17280 6682 ft 243 kts 76°
2026-04-25 15:38 37.74202 30.19310 6412 ft 238 kts 69°
2026-04-25 15:39 37.75049 30.21065 6159 ft 231 kts 53°
2026-04-25 15:39 37.76024 30.22630 5967 ft 231 kts 50°
2026-04-25 15:39 37.77069 30.24189 5740 ft 231 kts 49°
2026-04-25 15:39 37.78099 30.25707 5493 ft 225 kts 49°
2026-04-25 15:40 37.79098 30.27186 5236 ft 214 kts 49°
2026-04-25 15:40 37.79419 30.27662 5126 ft 210 kts 49°
2026-04-25 15:40 37.80945 30.29927 4489 ft 197 kts 49°
2026-04-25 15:40 37.81821 30.31226 4107 ft 191 kts 48°
2026-04-25 15:41 37.82658 30.32467 3762 ft 178 kts 48°
2026-04-25 15:41 37.83436 30.33622 3376 ft 168 kts 49°
2026-04-25 15:41 37.84164 30.34709 3069 ft 156 kts 50°
2026-04-25 15:41 37.84846 30.35719 2865 ft 146 kts 48°
2026-04-25 15:42 37.85416 30.36557 2842 ft 83 kts 49°
2026-04-25 15:42 37.85631 30.36853 2842 ft 19 kts 19°
2026-04-25 15:42 37.85741 30.36788 2842 ft 18 kts 320°
2026-04-25 15:42 37.85829 30.36678 2843 ft 18 kts 318°
2026-04-25 15:43 37.85849 30.36656 2842 ft 3 kts 319°